Location: Bishopstone
(51.0167°N, 1.9000°W)
Time: 13:17:47
(UTC+00:00)

SPOT 1/Viking Rocket - Pass Details

Date: 16 September 2019
Orbit: 777 x 795 km, 98.5° (Epoch: 20 October)

Event Time Altitude Azimuth Distance (km) Brightness Sun altitude
Exits shadow 21:09:51 67° 83° (E) 855 3.5 -25.1°
Maximum altitude 21:10:01 67° 71° (ENE) 853 3.5 -25.2°
Drops below altitude 10° 21:15:10 10° 349° (N) 2,354 6.7 -25.8°
Sets 21:17:30 0° 347° (NNW) 3,284 7.6 -26.0°
